Regional Weather Roundup
Issued by NWS

Home | Current Version | Previous Version | Graphics & Text | Print | Product List | Glossary On
Versions: 1 2 3 4 5 6 7 8 9 10 11 12 13 14 15 16 17 18 19 20 21 22 23 24 25 26 27 28 29 30 31 32 33 34 35 36 37 38 39 40 41 42 43 44 45 46 47 48 49 50
000
ASUS45 KBOU 291607
RWRCO

WEATHER ROUNDUP FOR COLORADO
NATIONAL WEATHER SERVICE DENVER/BOULDER CO
1000 AM MDT SAT AUG 29 2015

NOTE: "FAIR" INDICATES FEW OR NO CLOUDS BELOW 12000 FEET WITH NO
SIGNIFICANT WEATHER AND/OR OBSTRUCTIONS TO VISIBILITY.

COZ001>005-013-030-031-291700-
...NORTHWEST COLORADO...

CITY           SKY/WX    TMP DP  RH WIND       PRES   REMARKS
CRAIG          SUNNY     72  45  37 E9        30.32F
HAYDEN         NOT AVBL
MEEKER         SUNNY     66  41  40 CALM      30.33F
MOUNT WERNER   NOT AVBL
STEAMBOAT SPGS SUNNY     61  44  52 CALM      30.38S
WALDEN         SUNNY     55  41  58 CALM      30.47S
$$

COZ006>008-011-291700-
...WEST CENTRAL VALLEYS...

CITY           SKY/WX    TMP DP  RH WIND       PRES   REMARKS
GRAND JUNCTION SUNNY     75  45  34 SE12      30.24R
MONTROSE       SUNNY     72  45  37 CALM      30.32S
EAGLE          SUNNY     59  43  55 CALM      30.42F
RIFLE          SUNNY     66  47  50 CALM      30.30F
DELTA          RAIN      71  48  44 CALM      30.29S
NUCLA          SUNNY     70  41  35 CALM      30.35S
$$

COZ017>023-064>068-291700-
...SOUTHWEST COLORADO...

CITY           SKY/WX    TMP DP  RH WIND       PRES   REMARKS
DURANGO        SUNNY     71  47  42 CALM      30.40S
CORTEZ         SUNNY     78  48  34 S9        30.31S
PAGOSA SPRINGS SUNNY     67  43  41 CALM      30.48S
TELLURIDE      SUNNY     65  42  42 SE7       30.56R
WOLF CREEK PAS PTSUNNY   52  41  66 SW9G20    30.78R
$$

COZ009-010-012-014-032>034-037-058>063-291700-
...CENTRAL COLORADO...

CITY           SKY/WX    TMP DP  RH WIND       PRES   REMARKS
ASPEN          SUNNY     63  43  48 N5        30.44S
BUENA VISTA    SUNNY     63  41  44 CALM      30.49S
COPPER MTN     SUNNY     59  37  44 W8        30.74R
BERTHOUD PASS  FAIR      46  34  61 W14       30.78R
COTTONWOOD PAS SUNNY     61  41  48 E5        30.60S
GUNNISON       SUNNY     61  45  55 W3        30.49F
KREMMLING      SUNNY     55  41  58 CALM      30.47F
LEADVILLE      SUNNY     55  38  52 VRB3      30.59S
SALIDA         SUNNY     64  43  46 CALM      30.53F
SUNLIGHT       SUNNY     59  43  55 CALM      30.67S
WILKERSON PASS SUNNY     54  37  54 SW7       30.72R
$$

COZ069>075-291700-
...SAN LUIS VALLEY/SANGRE DE CRISTO MOUNTAINS...

CITY           SKY/WX    TMP DP  RH WIND       PRES   REMARKS
ALAMOSA        SUNNY     66  43  43 CALM      30.47S
LA VETA PASS   MOSUNNY   59  37  44 CALM      30.64R
SAGUACHE       SUNNY     66  43  42 S3        30.48F
$$

COZ035-036-038>040-291700-
...NORTHERN COLORADO FRONT RANGE...

CITY           SKY/WX    TMP DP  RH WIND       PRES   REMARKS
DENVER INTL AP SUNNY     78  44  29 SW8       30.28R
DMNS CITY PARK   N/A     75  46  35 SE8G14    30.27R
AURORA         MOSUNNY   77  45  32 S9        30.30R
FRONT RANGE AP SUNNY     79  41  25 S8        30.29R
ERIE MUNI ARPT SUNNY     74  43  32 CALM      30.26R
BOULDER MUN AP SUNNY     73  45  35 NE5       30.27R
CENTENNIAL     SUNNY     77  44  30 S8        30.30S
BROOMFIELD     SUNNY     73  45  35 NE3       30.29
FORT COLLINS   SUNNY     70  46  43 N5        30.27R
LONGMONT       SUNNY     75  49  39 CALM      30.27R
$$

COZ041-046-047-076>085-087-088-291700-
...PIKES PEAK/PALMER DIVIDE AND SOUTHERN FOOTHILLS...

CITY           SKY/WX    TMP DP  RH WIND       PRES   REMARKS
COLO. SPRINGS  MOSUNNY   73  42  32 VRB6      30.37S
A. F. ACADEMY  SUNNY     70  44  38 VRB5      30.38S
ELLICOTT       SUNNY    N/A N/A N/A S8        30.36R
FALCON         SUNNY     72  43  36 MISG      30.42S
FORT CARSON    SUNNY     72  45  38 NE2       30.34S
LIMON          SUNNY     75  51  43 S9        30.31S
MONUMENT HILL  SUNNY     72  41  33 S9        30.41R
TRINIDAD       SUNNY     73  46  38 NW6       30.35R
$$

COZ042>045-048>051-090-091-291700-
...NORTHEAST COLORADO...

CITY           SKY/WX    TMP DP  RH WIND       PRES   REMARKS
GREELEY ARPT   SUNNY     66  52  59 CALM      30.26S
AKRON          SUNNY     77  50  38 SW9       30.25S
BURLINGTON     SUNNY     79  56  45 W7        30.25S
WRAY           SUNNY     79  51  36 CALM      30.21S
STERLING       SUNNY     68  52  56 S7        30.21S
HOLYOKE        SUNNY     79  54  41 SW5       30.20S
FORT MORGAN    SUNNY     70  45  40 SW3       30.25R
$$

COZ086-089-092>099-291700-
...SOUTHEAST COLORADO...

CITY           SKY/WX    TMP DP  RH WIND       PRES   REMARKS
PUEBLO         SUNNY     73  48  41 CALM      30.28S
LA JUNTA       SUNNY     75  50  41 W6        30.27R
LAMAR          SUNNY     73  59  61 VRB5      30.22S
SPRINGFIELD    NOT AVBL
$$




USA.gov is the U.S. government's official web portal to all federal, state and local government web resources and services.